Showing default

SALSAT, 46495

Orbit data source: Space-Track

SALSAT, 46495 is a payload satellite owned by TUB (DE) in SSO that was launched on Mon, 28 Sep 2020 UTC via a SOYUZ-2-1B launch vehicle from the Plesetsk Missile And Space Complex (PKMTR). Payloads include a variety of satellites, spacecraft, and rockets equipped with specific instruments for various scientific and technological missions. These include communications satellites like Starlink; space stations such as the ISS; scientific satellites like the Hubble; Earth observation satellites from companies like Planet Labs, Umbra, and HawkEye 360; GPS; miniature CubeSats for education and research; and military/defense satellites.

Loading next visibility...
SALSAT details
Identifier
46495, 2020-068K
Orbit
SSO
Last TLE update17 hours ago
Origin
Flag of DETUB (DE / GER)
ManufacturerTUB
MissionOperational Amateur Sigint
Bus & MotorTUBIX10, Unknown motor
Mass12 kg wet, 12 kg dry
Launch date (UTC)
2020-09-28 (4 years ago)
Launch vehicle
SOYUZ-2-1B
Launch site
Plesetsk Missile And Space Complex (PKMTR)
Object type
Payload
Rocket body
Debris
Shape & HBRBox, Unknown HBR
Radar Cross Section0.086 m², Medium (>0.1 m² and < 1m²)

Expand to show TLE details & history

TLE from 17 hours ago
0 SALSAT
1 46495U 20068K   25023.86090532  .00014409  00000-0  68447-3 0  9999
2 46495  97.8451 356.0438 0010323 277.3226  82.6834 15.19297956237749
Epoch: 2025-01-23T20:39Z
Definitive object data (Epoch: 2025-01-23T20:39:42.219Z)
Latitude-0.00004°
Longitude-77.31447°
Altitude510.139 km
Speed7.609 km/s
True Right ascension23h 44m 10s
True Declination0° 00' 00"
Sunlit
Object was in daylight at TLE epoch
Visualization TLE readout
Latitude-75.30871°
Longitude-45.06709°
Altitude528.18 km
Speed7.602 km/s
Apparent Right ascension02h 41m 24s
Apparent Declination-58° 23' 32"
Sunlit
Object is in daylight
Visualization observer readout
Local Sidereal Time14:58:36
Azimuth172.957° S
Elevation-71.321°
Doppler factor1
Orbital elements
Apogee altitude512.053 km
Perigee altitude497.842 km
Semi-major axis6,883.084 km
Eccentricity0.0010323
Inclination97.8451°
RAAN356.0438°
Arg. of periapsis277.3226°
True anomaly82.80075°
Mean anomaly82.6834°
Eccentric anomaly82.74207°
Mean motion3.80074 °/min
BSTAR0.00068447
Orbital period94.72 mins
Loading maneuver chart data...
Loading historical data...
Loading historical data...
Loading historical data...
Loading historical data...
Loading historical data...
Loading historical data...
Loading historical data...

SALSAT Visibility forecast

Observer location: undefined°, undefined

Span
Click to sort rows by Start time (UTC) header in descending order
Start Az.
Max El. time (UTC)
Max El. Az.
Max El.
End time (UTC)
End Az.
6 mins2025-01-24 22:04:32.602Z169.561° S2025-01-24 22:07:32.602Z208.587° SW44.433°2025-01-24 22:10:32.602Z344.947° N
5 mins2025-01-25 11:10:32.602Z354.515° N2025-01-25 11:12:32.602Z279.113° WNW39.769°2025-01-25 11:15:32.602Z208.948° SW
|